Regional Weather Roundup
Issued by NWS Little Rock, AR

Home | Current Version | Previous Version | Text Only | Print | Product List | Glossary On
Versions: 1 2 3 4 5 6 7 8 9 10 11 12 13 14 15 16 17 18 19 20 21 22 23 24 25 26 27 28 29 30 31 32
000
ASUS44 KLZK 230905
RWRLZK

WEATHER ROUNDUP FOR ARKANSAS
NATIONAL WEATHER SERVICE LITTLE ROCK AR
300 AM CST FRI FEB 23 2018

NOTE: "FAIR" INDICATES FEW OR NO CLOUDS BELOW 12,000 FEET WITH NO
SIGNIFICANT WEATHER AND/OR OBSTRUCTIONS TO VISIBILITY.

ARZ001-003-010-029-231000-
NORTHWEST ARKANSAS

CITY           SKY/WX    TMP DP  RH WIND       PRES   REMARKS
FAYETTEVILLE   CLOUDY    45  45 100 SW3       30.20S
FORT SMITH     CLOUDY    46  46 100 CALM      30.22F FOG
HARRISON       CLOUDY    43  43 100 NW3       30.20R FOG
BENTONVILLE    CLOUDY    43  43 100 NW6       30.22S FOG
SILOAM SPGS    CLOUDY    43  42  97 W5        30.22R FOG
HIGHFILL       CLOUDY    44  43  96 W5        30.21R FOG
$$

ARZ004-005-016-231000-
NORTH CENTRAL ARKANSAS

CITY           SKY/WX    TMP DP  RH WIND       PRES   REMARKS
BATESVILLE     RAIN      53  52  96 CALM      30.19F
FLIPPIN        CLOUDY    44  43  96 NW5       30.21S
MTN HOME       CLOUDY    43  43 100 N3        30.19R
$$

ARZ040-041-231000-
WEST CENTRAL ARKANSAS

CITY           SKY/WX    TMP DP  RH WIND       PRES   REMARKS
MENA           CLOUDY    50  48  93 CALM      30.21S
MOUNT IDA      RAIN      48  48 100 CALM      30.17S FOG
$$

ARZ009-017-025-026-028-231000-
NORTHEAST ARKANSAS

CITY           SKY/WX    TMP DP  RH WIND       PRES   REMARKS
JONESBORO      CLOUDY    50  50 100 NW6       30.20R
NEWPORT        HVY RAIN  48  48 100 S7        30.21F FOG
WALNUT RIDGE   RAIN      47  46  97 S9        30.21R FOG
BLYTHEVILLE    LGT RAIN  55 N/A N/A S8        30.18F
$$

ARZ022-023-033-042-044-231000-
CENTRAL ARKANSAS

CITY           SKY/WX    TMP DP  RH WIND       PRES   REMARKS
LITTLE ROCK    LGT RAIN  48  48 100 S6        30.21F
N LITTLE ROCK    N/A     47  47 100 CALM      30.20F
JACKSONVILLE   TSTM      48  48 100 CALM      30.19F FOG
SEARCY         LGT RAIN  49  49 100 CALM      30.21F
HOT SPRINGS    HVY RAIN  49  49 100 N3        30.19F FOG
RUSSELLVILLE   RAIN      47  47 100 N5        30.21F
CLINTON        CLOUDY    46  46 100 N5        30.20F FOG
$$

ARZ036-231000-
EAST ARKANSAS

CITY           SKY/WX    TMP DP  RH WIND       PRES   REMARKS
WEST MEMPHIS   MOCLDY    53  53 100 SE7       30.20F
$$

ARZ050-053-066-070-073-231000-
SOUTHWEST ARKANSAS

CITY           SKY/WX    TMP DP  RH WIND       PRES   REMARKS
ARKADELPHIA    LGT RAIN  48  48 100 E3        30.21F
CAMDEN         DRIZZLE   48  46  93 CALM      30.21S
TEXARKANA      LGT RAIN  48  48 100 SW5       30.22R FOG
EL DORADO      CLOUDY    49  49 100 NW6       30.21S FOG
DE QUEEN       RAIN      48  48 100 NW6       30.19F FOG
$$

ARZ056-057-069-231000-
SOUTHEAST ARKANSAS

CITY           SKY/WX    TMP DP  RH WIND       PRES   REMARKS
PINE BLUFF     CLOUDY    48  48 100 NW7       30.22F
STUTTGART      CLOUDY    50  49  96 NW5       30.23F
MONTICELLO     CLOUDY    53  51  93 CALM      30.21F

$$






USA.gov is the U.S. government's official web portal to all federal, state and local government web resources and services.